Weather History for Dubuque, IA

Change the Weather History Date:

Monday, February 4, 2013

  Actual Average Record
Temperature  
Mean Temperature 14 °F 21 °F  
Max Temperature 20 °F 29 °F 58 °F (1890)
Min Temperature 7 °F 13 °F -23 °F (1996)
Degree Days  
Heating Degree Days 51 44  
Month to date heating degree days 217 179  
Since 1 July heating degree days 4266 4416  
Cooling Degree Days 0 0  
Month to date cooling degree days 0 0  
Year to date cooling degree days 0 0  
Moisture  
Dew Point 12 °F    
Average Humidity 80    
Maximum Humidity 92    
Minimum Humidity 67    
Precipitation  
Precipitation T in 0.04 in 0.67 in (1986)
Month to date precipitation 0.19 0.17  
Year to date precipitation 1.93 1.34  
Snow  
Snow 0.10 in 0.40 in - ()
Month to date snowfall 2.9 1.5  
Since 1 July snowfall 28.7 26.1  
Snow Depth 6.00 in    
Sea Level Pressure  
Sea Level Pressure 29.93 in    
Wind  
Wind Speed 9 mph (NE)    
Max Wind Speed 18 mph    
Max Gust Speed 23 mph    
Visibility 8 miles    
Events Snow    
T = Trace of Precipitation, MM = Missing Value Source: NWS Daily Summary

Daily Weather History Graph

Daily Weather History Graph

Search for Another Location

Airport:

Trip Planner

Search our weather history database for the weather conditions in past years. The results will help you decide how hot, cold, wet, or windy it might be!

Date:

Astronomy

Feb. 04, 2013 Rise Set
Actual Time 7:12 AM CST 5:21 PM CST
Civil Twilight 6:43 AM CST 5:50 PM CST
Nautical Twilight 6:09 AM CST 6:24 PM CST
Astronomical Twilight 5:37 AM CST 6:57 PM CST
Moon 1:50 AM CST (2/4) 11:43 AM CST (2/4)
Length of Visible Light 11h 07m
Length of Day
10h 08m
Last Quarter, 37% of the Moon is Illuminated
Feb 4
Last Quarter
Feb 10
New
Feb 17
First Quarter
Feb 25
Full
Mar 4
Last Quarter

Hourly Weather History & Observations

Time (CST) Temp. Windchill Dew Point Humidity Pressure Visibility Wind Dir Wind Speed Gust Speed Precip Events Conditions
12:09 AM 19.4 °F 7.9 °F 15.8 °F 86% 29.89 in 2.0 mi ESE 10.4 mph - 0.00 in Snow Light Snow
12:20 AM 19.4 °F 8.6 °F 15.8 °F 86% 29.89 in 5.0 mi ESE 9.2 mph - 0.01 in Snow Light Snow
12:53 AM 19.0 °F 8.2 °F 17.1 °F 92% 29.93 in 7.0 mi ESE 9.2 mph - 0.01 in   Overcast
1:53 AM 19.9 °F 8.6 °F 17.1 °F 89% 29.90 in 8.0 mi ESE 10.4 mph - N/A   Overcast
2:53 AM 19.9 °F 9.3 °F 17.1 °F 89% 29.88 in 10.0 mi East 9.2 mph - N/A   Overcast
4:53 AM 19.9 °F 9.3 °F 17.1 °F 89% 29.87 in 8.0 mi NE 9.2 mph - N/A   Overcast
5:36 AM 19.4 °F 7.2 °F 17.6 °F 93% 29.81 in 9.0 mi NE 11.5 mph - N/A   Overcast
5:53 AM 19.0 °F 6.1 °F 17.1 °F 92% 29.87 in 9.0 mi NE 12.7 mph - N/A   Overcast
6:09 AM 19.4 °F 5.5 °F 17.6 °F 93% 29.82 in 10.0 mi NE 15.0 mph - N/A   Overcast
6:53 AM 18.0 °F 3.6 °F 15.1 °F 88% 29.89 in 10.0 mi NE 15.0 mph - N/A   Overcast
7:53 AM 17.1 °F 2.5 °F 12.9 °F 84% 29.92 in 5.0 mi NE 15.0 mph - N/A   Overcast
8:18 AM 15.8 °F 0.9 °F 12.2 °F 86% 29.87 in 2.5 mi NE 15.0 mph - N/A   Overcast
8:31 AM 15.8 °F 0.9 °F 12.2 °F 86% 29.87 in 1.5 mi NE 15.0 mph - N/A   Overcast
8:53 AM 16.0 °F 1.1 °F 12.9 °F 88% 29.94 in 1.8 mi NNE 15.0 mph - N/A   Overcast
9:04 AM 15.8 °F 2.1 °F 12.2 °F 86% 29.87 in 2.0 mi NE 12.7 mph - N/A   Overcast
9:17 AM 15.8 °F 2.7 °F 12.2 °F 86% 29.87 in 1.8 mi NE 11.5 mph - N/A   Overcast
9:31 AM 15.8 °F 2.7 °F 12.2 °F 86% 29.88 in 2.0 mi NE 11.5 mph - N/A   Overcast
9:46 AM 15.8 °F 1.4 °F 12.2 °F 86% 29.89 in 3.0 mi NE 13.8 mph - N/A   Overcast
9:53 AM 16.0 °F 0.6 °F 12.0 °F 84% 29.95 in 3.0 mi NNE 16.1 mph - N/A   Overcast
10:53 AM 17.1 °F 3.6 °F 10.9 °F 77% 29.97 in 3.0 mi NE 12.7 mph - N/A   Haze
11:53 AM 18.0 °F 5.4 °F 10.9 °F 74% 29.98 in 10.0 mi NE 11.5 mph - N/A   Overcast
11:57 AM 17.6 °F 4.3 °F 10.4 °F 73% 29.93 in 10.0 mi NE 12.7 mph - N/A   Overcast
12:53 PM 19.0 °F 7.5 °F 10.9 °F 71% 30.00 in 10.0 mi North 10.4 mph - N/A   Overcast
1:53 PM 19.0 °F 8.2 °F 10.9 °F 71% 29.96 in 10.0 mi NE 9.2 mph - N/A   Scattered Clouds
2:01 PM 19.4 °F 9.5 °F 10.4 °F 68% 29.90 in 10.0 mi NE 8.1 mph - N/A   Mostly Cloudy
2:10 PM 19.4 °F 8.6 °F 10.4 °F 68% 29.90 in 10.0 mi NNE 9.2 mph - N/A   Mostly Cloudy
2:36 PM 19.4 °F 8.6 °F 10.4 °F 68% 29.90 in 10.0 mi NNE 9.2 mph - N/A   Scattered Clouds
2:53 PM 19.9 °F 10.1 °F 10.9 °F 68% 29.97 in 10.0 mi NE 8.1 mph - N/A   Clear
3:53 PM 19.0 °F 9.0 °F 10.0 °F 68% 29.98 in 10.0 mi NNE 8.1 mph - N/A   Clear
4:53 PM 16.0 °F 4.4 °F 9.0 °F 74% 29.99 in 10.0 mi NNW 9.2 mph - N/A   Clear
5:53 PM 15.1 °F - 8.1 °F 74% 29.99 in 10.0 mi Calm Calm - N/A   Clear
6:53 PM 12.0 °F - 7.0 °F 80% 30.02 in 10.0 mi Calm Calm - N/A   Clear
7:53 PM 10.9 °F 4.7 °F 6.1 °F 81% 30.01 in 10.0 mi SSW 3.5 mph - N/A   Clear
8:53 PM 10.0 °F - 6.1 °F 84% 30.00 in 10.0 mi Calm Calm - N/A   Clear
9:53 PM 8.1 °F 1.4 °F 3.9 °F 83% 30.00 in 10.0 mi SSW 3.5 mph - N/A   Clear
10:53 PM 10.0 °F 0.4 °F 6.1 °F 84% 29.96 in 10.0 mi SSW 5.8 mph - N/A   Clear
11:53 PM 10.9 °F 1.4 °F 6.1 °F 81% 29.96 in 10.0 mi South 5.8 mph - N/A   Partly Cloudy